| time (UTC) | temp F | wind direction | speed MPH | gust MPH | rain 1hr in | rain 24hr in | rain mn in | humidity % | barometer mb |
| 20260902204546 | 90 | 208 | 3.0 | 7.0 | 0.00 | 0.03 | 0.02 | 72 | 1016.0 |
| 20260902204037 | 90 | 238 | 4.0 | 7.0 | 0.00 | 0.03 | 0.02 | 72 | 1015.9 |
| 20260902203537 | 91 | 186 | 2.0 | 7.0 | 0.00 | 0.03 | 0.02 | 73 | 1016.0 |
| 20260902203042 | 91 | 297 | 2.0 | 8.0 | 0.00 | 0.03 | 0.02 | 74 | 1016.1 |
| 20260902202638 | 92 | 72 | 0.0 | 6.0 | 0.00 | 0.03 | 0.02 | 72 | 1016.1 |
| 20260902202035 | 91 | 150 | 1.0 | 7.0 | 0.00 | 0.03 | 0.02 | 73 | 1016.2 |
| 20260902201544 | 92 | 242 | 3.0 | 7.0 | 0.00 | 0.03 | 0.02 | 71 | 1016.3 |
| 20260902201033 | 92 | 249 | 1.0 | 4.0 | 0.00 | 0.03 | 0.02 | 71 | 1016.3 |
| 20260902200533 | 92 | 109 | 1.0 | 6.0 | 0.00 | 0.03 | 0.02 | 73 | 1016.4 |
| 20260902200033 | 92 | 126 | 2.0 | 6.0 | 0.00 | 0.03 | 0.02 | 73 | 1016.4 |
| 20260902195533 | 93 | 222 | 0.0 | 5.0 | 0.00 | 0.03 | 0.02 | 75 | 1016.5 |
| 20260902195032 | 93 | 131 | 1.0 | 6.0 | 0.00 | 0.03 | 0.02 | 72 | 1016.5 |
| 20260902194535 | 93 | 243 | 1.0 | 6.0 | 0.00 | 0.03 | 0.02 | 73 | 1016.5 |
| 20260902194031 | 93 | 262 | 1.0 | 6.0 | 0.00 | 0.03 | 0.02 | 73 | 1016.5 |
| 20260902193531 | 93 | 219 | 0.0 | 6.0 | 0.00 | 0.03 | 0.02 | 72 | 1016.5 |
| 20260902193040 | 93 | 269 | 1.0 | 6.0 | 0.00 | 0.03 | 0.02 | 72 | 1016.6 |
| 20260902192630 | 93 | 79 | 0.0 | 7.0 | 0.00 | 0.03 | 0.02 | 73 | 1016.6 |
| 20260902192030 | 93 | 79 | 0.0 | 7.0 | 0.00 | 0.03 | 0.02 | 71 | 1016.6 |
| 20260902191530 | 93 | 257 | 1.0 | 7.0 | 0.00 | 0.03 | 0.02 | 71 | 1016.6 |
| 20260902191028 | 93 | 227 | 0.0 | 8.0 | 0.00 | 0.03 | 0.02 | 73 | 1016.7 |
| 20260902190528 | 93 | 245 | 1.0 | 8.0 | 0.00 | 0.03 | 0.02 | 72 | 1016.7 |
| 20260902190029 | 93 | 212 | 1.0 | 6.0 | 0.00 | 0.03 | 0.02 | 71 | 1016.7 |
| 20260902185526 | 93 | 240 | 0.0 | 4.0 | 0.00 | 0.03 | 0.02 | 73 | 1016.7 |
| 20260902185026 | 93 | 74 | 1.0 | 7.0 | 0.00 | 0.03 | 0.02 | 70 | 1016.7 |
| 20260902184525 | 94 | 290 | 1.0 | 4.0 | 0.00 | 0.03 | 0.02 | 69 | 1016.7 |
| 20260902184024 | 94 | 92 | 1.0 | 4.0 | 0.00 | 0.03 | 0.02 | 71 | 1016.8 |
| 20260902183524 | 94 | 236 | 1.0 | 5.0 | 0.00 | 0.03 | 0.02 | 71 | 1016.8 |
| 20260902183027 | 93 | 162 | 1.0 | 5.0 | 0.00 | 0.03 | 0.02 | 71 | 1016.8 |
| 20260902182626 | 94 | 147 | 1.0 | 8.0 | 0.00 | 0.03 | 0.02 | 71 | 1016.9 |
| 20260902182023 | 94 | 78 | 1.0 | 8.0 | 0.00 | 0.03 | 0.02 | 71 | 1017.0 |
| 20260902181523 | 94 | 173 | 2.0 | 8.0 | 0.00 | 0.03 | 0.02 | 70 | 1017.0 |
| 20260902181021 | 94 | 256 | 2.0 | 7.0 | 0.00 | 0.03 | 0.02 | 69 | 1017.0 |
| 20260902180522 | 94 | 202 | 0.0 | 5.0 | 0.00 | 0.03 | 0.02 | 71 | 1016.9 |
| 20260902180019 | 94 | 305 | 1.0 | 5.0 | 0.00 | 0.03 | 0.02 | 68 | 1017.0 |
| 20260902175518 | 94 | 143 | 2.0 | 4.0 | 0.00 | 0.03 | 0.02 | 69 | 1017.0 |
| 20260902175016 | 94 | 132 | 0.0 | 5.0 | 0.00 | 0.03 | 0.02 | 65 | 1017.0 |
| 20260902174518 | 94 | 270 | 0.0 | 5.0 | 0.00 | 0.03 | 0.02 | 66 | 1017.1 |
| 20260902174014 | 94 | 237 | 1.0 | 6.0 | 0.00 | 0.03 | 0.02 | 66 | 1017.1 |
| 20260902173513 | 94 | 253 | 0.0 | 6.0 | 0.00 | 0.03 | 0.02 | 71 | 1017.1 |
| 20260902173015 | 94 | 248 | 0.0 | 4.0 | 0.00 | 0.03 | 0.02 | 66 | 1017.1 |
| 20260902172612 | 94 | 264 | 0.0 | 4.0 | 0.00 | 0.03 | 0.02 | 66 | 1017.2 |
| 20260902172009 | 94 | 178 | 0.0 | 2.0 | 0.00 | 0.03 | 0.02 | 69 | 1017.1 |
| 20260902171508 | 93 | 270 | 0.0 | 5.0 | 0.00 | 0.03 | 0.02 | 67 | 1017.1 |
| 20260902171007 | 93 | 209 | 0.0 | 5.0 | 0.00 | 0.03 | 0.02 | 69 | 1017.2 |
| 20260902170508 | 93 | 236 | 1.0 | 6.0 | 0.00 | 0.03 | 0.02 | 65 | 1017.2 |
| 20260902170005 | 93 | 226 | 2.0 | 6.0 | 0.00 | 0.03 | 0.02 | 68 | 1017.2 |
| 20260902165507 | 93 | 126 | 0.0 | 0.0 | 0.00 | 0.03 | 0.02 | 71 | 1017.3 |
| 20260902165004 | 93 | 247 | 0.0 | 1.0 | 0.00 | 0.03 | 0.02 | 69 | 1017.3 |
| 20260902164502 | 92 | 124 | 0.0 | 6.0 | 0.00 | 0.03 | 0.02 | 68 | 1017.3 |
| 20260902164101 | 92 | 249 | 2.0 | 6.0 | 0.00 | 0.03 | 0.02 | 68 | 1017.3 |
| 20260902163501 | 92 | 257 | 0.0 | 3.0 | 0.00 | 0.03 | 0.02 | 68 | 1017.3 |
| 20260902163104 | 92 | 27 | 0.0 | 5.0 | 0.00 | 0.03 | 0.02 | 68 | 1017.3 |
| 20260902162600 | 92 | 228 | 1.0 | 5.0 | 0.00 | 0.03 | 0.02 | 69 | 1017.5 |
| 20260902162004 | 92 | 215 | 0.0 | 5.0 | 0.00 | 0.03 | 0.02 | 70 | 1017.4 |
| 20260902161501 | 92 | 254 | 1.0 | 5.0 | 0.00 | 0.03 | 0.02 | 72 | 1017.3 |
| 20260902161001 | 92 | 67 | 0.0 | 3.0 | 0.00 | 0.03 | 0.02 | 71 | 1017.4 |
| 20260902160559 | 92 | 228 | 0.0 | 5.0 | 0.00 | 0.03 | 0.02 | 70 | 1017.4 |
| 20260902160110 | 91 | 229 | 0.0 | 6.0 | 0.00 | 0.03 | 0.02 | 69 | 1017.5 |
| 20260902155558 | 91 | 233 | 3.0 | 6.0 | 0.00 | 0.03 | 0.02 | 68 | 1017.4 |
| 20260902155057 | 90 | 222 | 2.0 | 6.0 | 0.00 | 0.03 | 0.02 | 67 | 1017.5 |
| 20260902154559 | 90 | 250 | 2.0 | 6.0 | 0.00 | 0.03 | 0.02 | 69 | 1017.6 |
| 20260902154100 | 90 | 258 | 1.0 | 4.0 | 0.00 | 0.03 | 0.02 | 69 | 1017.6 |
| 20260902153557 | 90 | 225 | 0.0 | 8.0 | 0.00 | 0.03 | 0.02 | 70 | 1017.5 |
| 20260902153058 | 90 | 290 | 4.0 | 8.0 | 0.00 | 0.03 | 0.02 | 69 | 1017.6 |
| 20260902152557 | 90 | 213 | 0.0 | 7.0 | 0.00 | 0.03 | 0.02 | 72 | 1017.5 |
| 20260902152059 | 90 | 260 | 0.0 | 7.0 | 0.00 | 0.03 | 0.02 | 71 | 1017.5 |
| 20260902151555 | 89 | 248 | 3.0 | 7.0 | 0.00 | 0.03 | 0.02 | 69 | 1017.6 |
| 20260902151055 | 90 | 230 | 0.0 | 4.0 | 0.00 | 0.03 | 0.02 | 72 | 1017.7 |
| 20260902150553 | 89 | 254 | 1.0 | 8.0 | 0.00 | 0.03 | 0.02 | 72 | 1017.7 |
| 20260902150054 | 89 | 210 | 2.0 | 8.0 | 0.00 | 0.03 | 0.02 | 70 | 1017.5 |
| 20260902145553 | 89 | 239 | 1.0 | 5.0 | 0.00 | 0.03 | 0.02 | 71 | 1017.6 |
| 20260902145052 | 89 | 233 | 0.0 | 4.0 | 0.00 | 0.03 | 0.02 | 72 | 1017.6 |
| 20260902144551 | 88 | 209 | 1.0 | 4.0 | 0.00 | 0.03 | 0.02 | 71 | 1017.6 |
| 20260902144050 | 88 | 172 | 0.0 | 4.0 | 0.00 | 0.03 | 0.02 | 73 | 1017.5 |
| 20260902143549 | 87 | 293 | 2.0 | 5.0 | 0.00 | 0.03 | 0.02 | 71 | 1017.4 |
| 20260902143049 | 87 | 212 | 2.0 | 5.0 | 0.00 | 0.03 | 0.02 | 70 | 1017.5 |
| 20260902142548 | 87 | 271 | 2.0 | 7.0 | 0.00 | 0.03 | 0.02 | 71 | 1017.5 |
| 20260902142048 | 87 | 207 | 1.0 | 7.0 | 0.00 | 0.03 | 0.02 | 72 | 1017.4 |
| 20260902141545 | 86 | 253 | 2.0 | 7.0 | 0.00 | 0.03 | 0.02 | 73 | 1017.4 |
| 20260902141045 | 86 | 290 | 2.0 | 4.0 | 0.00 | 0.03 | 0.02 | 76 | 1017.4 |
| 20260902140546 | 86 | 235 | 2.0 | 7.0 | 0.00 | 0.03 | 0.02 | 77 | 1017.3 |
| 20260902140043 | 86 | 286 | 2.0 | 6.0 | 0.00 | 0.03 | 0.02 | 78 | 1017.3 |
| 20260902135543 | 86 | 282 | 2.0 | 5.0 | 0.00 | 0.03 | 0.02 | 79 | 1017.3 |
| 20260902135041 | 85 | 245 | 2.0 | 4.0 | 0.00 | 0.03 | 0.02 | 80 | 1017.3 |
| 20260902134550 | 85 | 279 | 2.0 | 4.0 | 0.00 | 0.03 | 0.02 | 79 | 1017.3 |
| 20260902134039 | 84 | 244 | 1.0 | 5.0 | 0.00 | 0.03 | 0.02 | 81 | 1017.4 |
| 20260902133538 | 84 | 231 | 3.0 | 5.0 | 0.00 | 0.03 | 0.02 | 82 | 1017.4 |
| 20260902133037 | 84 | 247 | 1.0 | 6.0 | 0.00 | 0.03 | 0.02 | 83 | 1017.5 |
| 20260902132536 | 83 | 261 | 2.0 | 5.0 | 0.00 | 0.03 | 0.02 | 86 | 1017.6 |
| 20260902132041 | 83 | 259 | 2.0 | 5.0 | 0.00 | 0.03 | 0.02 | 86 | 1017.6 |
| 20260902131542 | 82 | 295 | 2.0 | 5.0 | 0.00 | 0.03 | 0.02 | 86 | 1017.6 |
| 20260902131034 | 82 | 245 | 2.0 | 5.0 | 0.00 | 0.03 | 0.02 | 87 | 1017.6 |
| 20260902130533 | 82 | 291 | 1.0 | 4.0 | 0.00 | 0.03 | 0.02 | 89 | 1017.7 |
| 20260902130033 | 81 | 273 | 2.0 | 6.0 | 0.00 | 0.03 | 0.02 | 90 | 1017.8 |
| 20260902125534 | 81 | 224 | 1.0 | 6.0 | 0.00 | 0.03 | 0.02 | 92 | 1017.8 |
| 20260902125029 | 81 | 215 | 2.0 | 6.0 | 0.00 | 0.03 | 0.02 | 93 | 1017.8 |
| 20260902124529 | 80 | 246 | 1.0 | 10.0 | 0.00 | 0.03 | 0.02 | 95 | 1017.9 |
| 20260902124026 | 80 | 250 | 3.0 | 10.0 | 0.00 | 0.03 | 0.02 | 96 | 1018.0 |
| 20260902123525 | 79 | 271 | 1.0 | 6.0 | 0.00 | 0.03 | 0.02 | 97 | 1018.0 |
| 20260902123029 | 79 | 252 | 2.0 | 6.0 | 0.00 | 0.03 | 0.02 | 98 | 1018.0 |
| 20260902122524 | 78 | 262 | 1.0 | 4.0 | 0.00 | 0.03 | 0.02 | 99 | 1018.1 |
| 20260902122022 | 78 | 269 | 1.0 | 4.0 | 0.00 | 0.03 | 0.02 | 99 | 1018.0 |
| 20260902121521 | 78 | 248 | 2.0 | 4.0 | 0.00 | 0.03 | 0.02 | 99 | 1017.9 |
| 20260902121022 | 78 | 240 | 0.0 | 3.0 | 0.00 | 0.03 | 0.02 | 99 | 1017.9 |
| 20260902120519 | 77 | 237 | 1.0 | 3.0 | 0.00 | 0.03 | 0.02 | 100 | 1017.8 |
| 20260902120017 | 77 | 248 | 1.0 | 3.0 | 0.00 | 0.03 | 0.02 | 100 | 1017.8 |
| 20260902115517 | 76 | 257 | 1.0 | 2.0 | 0.00 | 0.03 | 0.02 | 100 | 1017.8 |
| 20260902115015 | 76 | 226 | 0.0 | 2.0 | 0.00 | 0.03 | 0.02 | 100 | 1017.8 |
| 20260902114516 | 76 | 263 | 0.0 | 2.0 | 0.00 | 0.03 | 0.02 | 100 | 1017.7 |
| 20260902114014 | 75 | 270 | 0.0 | 1.0 | 0.00 | 0.03 | 0.02 | 100 | 1017.7 |
| 20260902113514 | 75 | 270 | 0.0 | 0.0 | 0.01 | 0.03 | 0.02 | 100 | 1017.7 |
| 20260902113014 | 74 | 270 | 0.0 | 0.0 | 0.01 | 0.03 | 0.02 | 100 | 1017.7 |
| 20260902112514 | 74 | 270 | 0.0 | 0.0 | 0.01 | 0.03 | 0.02 | 100 | 1017.7 |
| 20260902112015 | 73 | 270 | 0.0 | 0.0 | 0.01 | 0.03 | 0.02 | 100 | 1017.7 |
| 20260902111515 | 73 | 270 | 0.0 | 0.0 | 0.01 | 0.03 | 0.02 | 100 | 1017.8 |
| 20260902111015 | 73 | 270 | 0.0 | 0.0 | 0.01 | 0.03 | 0.02 | 100 | 1017.7 |
| 20260902110516 | 73 | 270 | 0.0 | 0.0 | 0.01 | 0.03 | 0.02 | 100 | 1017.7 |
| 20260902110018 | 73 | 270 | 0.0 | 0.0 | 0.01 | 0.04 | 0.02 | 100 | 1017.7 |
| 20260902105513 | 73 | 270 | 0.0 | 0.0 | 0.01 | 0.04 | 0.02 | 100 | 1017.5 |
| 20260902105013 | 73 | 270 | 0.0 | 0.0 | 0.01 | 0.04 | 0.02 | 100 | 1017.5 |
| 20260902104512 | 73 | 270 | 0.0 | 0.0 | 0.01 | 0.04 | 0.02 | 100 | 1017.5 |
| 20260902104012 | 73 | 270 | 0.0 | 0.0 | 0.01 | 0.04 | 0.02 | 100 | 1017.5 |
| 20260902103511 | 73 | 270 | 0.0 | 0.0 | 0.01 | 0.04 | 0.02 | 100 | 1017.5 |
| 20260902103011 | 73 | 270 | 0.0 | 0.0 | 0.00 | 0.03 | 0.01 | 100 | 1017.5 |
| 20260902102511 | 73 | 270 | 0.0 | 0.0 | 0.00 | 0.03 | 0.01 | 100 | 1017.6 |
| 20260902102011 | 73 | 270 | 0.0 | 0.0 | 0.00 | 0.03 | 0.01 | 100 | 1017.6 |
| 20260902101510 | 73 | 270 | 0.0 | 0.0 | 0.00 | 0.03 | 0.01 | 100 | 1017.5 |
| 20260902101010 | 73 | 270 | 0.0 | 0.0 | 0.00 | 0.03 | 0.01 | 100 | 1017.5 |
| 20260902100510 | 73 | 270 | 0.0 | 0.0 | 0.00 | 0.03 | 0.01 | 100 | 1017.4 |
| 20260902100014 | 73 | 270 | 0.0 | 0.0 | 0.00 | 0.03 | 0.01 | 100 | 1017.5 |
| 20260902095510 | 73 | 270 | 0.0 | 0.0 | 0.00 | 0.03 | 0.01 | 100 | 1017.5 |
| 20260902095010 | 73 | 270 | 0.0 | 0.0 | 0.00 | 0.03 | 0.01 | 99 | 1017.4 |
| 20260902094510 | 73 | 270 | 0.0 | 0.0 | 0.00 | 0.03 | 0.01 | 100 | 1017.4 |
| 20260902094010 | 73 | 270 | 0.0 | 0.0 | 0.00 | 0.03 | 0.01 | 100 | 1017.4 |
| 20260902093510 | 73 | 270 | 0.0 | 0.0 | 0.00 | 0.03 | 0.01 | 99 | 1017.3 |
| 20260902093019 | 73 | 270 | 0.0 | 0.0 | 0.00 | 0.03 | 0.01 | 100 | 1017.4 |
| 20260902092513 | 73 | 270 | 0.0 | 0.0 | 0.00 | 0.03 | 0.01 | 100 | 1017.4 |
| 20260902092008 | 73 | 270 | 0.0 | 0.0 | 0.00 | 0.03 | 0.01 | 100 | 1017.4 |
| 20260902091507 | 73 | 270 | 0.0 | 0.0 | 0.00 | 0.03 | 0.01 | 99 | 1017.4 |
| 20260902091007 | 73 | 270 | 0.0 | 0.0 | 0.01 | 0.03 | 0.01 | 99 | 1017.4 |
| 20260902090509 | 73 | 270 | 0.0 | 0.0 | 0.01 | 0.03 | 0.01 | 99 | 1017.3 |
| 20260902090007 | 74 | 270 | 0.0 | 0.0 | 0.01 | 0.03 | 0.01 | 99 | 1017.3 |
| 20260902085510 | 74 | 270 | 0.0 | 0.0 | 0.01 | 0.03 | 0.01 | 99 | 1017.3 |
| 20260902085007 | 74 | 270 | 0.0 | 0.0 | 0.01 | 0.03 | 0.01 | 100 | 1017.2 |
| 20260902084508 | 74 | 270 | 0.0 | 0.0 | 0.01 | 0.03 | 0.01 | 99 | 1017.3 |
| 20260902084006 | 74 | 270 | 0.0 | 0.0 | 0.01 | 0.03 | 0.01 | 99 | 1017.2 |
| 20260902083506 | 74 | 270 | 0.0 | 0.0 | 0.01 | 0.03 | 0.01 | 100 | 1017.2 |
| 20260902083005 | 74 | 270 | 0.0 | 0.0 | 0.01 | 0.03 | 0.01 | 99 | 1017.3 |
| 20260902082505 | 74 | 270 | 0.0 | 0.0 | 0.01 | 0.03 | 0.01 | 99 | 1017.3 |
| 20260902082005 | 74 | 270 | 0.0 | 0.0 | 0.01 | 0.03 | 0.01 | 99 | 1017.4 |
| 20260902081506 | 74 | 270 | 0.0 | 0.0 | 0.01 | 0.03 | 0.01 | 99 | 1017.3 |
| 20260902081005 | 74 | 270 | 0.0 | 0.0 | 0.00 | 0.02 | 0.00 | 99 | 1017.3 |
| 20260902080504 | 74 | 270 | 0.0 | 0.0 | 0.00 | 0.02 | 0.00 | 99 | 1017.2 |
| 20260902080004 | 74 | 270 | 0.0 | 0.0 | 0.00 | 0.02 | 0.00 | 99 | 1017.1 |
| 20260902075504 | 74 | 270 | 0.0 | 0.0 | 0.00 | 0.02 | 0.00 | 99 | 1017.1 |
| 20260902075004 | 74 | 270 | 0.0 | 0.0 | 0.00 | 0.02 | 0.00 | 99 | 1017.1 |
| 20260902074504 | 74 | 270 | 0.0 | 0.0 | 0.00 | 0.02 | 0.00 | 99 | 1017.0 |
| 20260902074004 | 74 | 270 | 0.0 | 0.0 | 0.00 | 0.02 | 0.00 | 99 | 1017.0 |
| 20260902073504 | 74 | 270 | 0.0 | 0.0 | 0.00 | 0.02 | 0.00 | 99 | 1017.1 |
| 20260902073003 | 74 | 270 | 0.0 | 0.0 | 0.00 | 0.02 | 0.00 | 99 | 1017.1 |
| 20260902072502 | 74 | 270 | 0.0 | 0.0 | 0.00 | 0.02 | 0.00 | 99 | 1017.2 |
| 20260902072003 | 74 | 270 | 0.0 | 0.0 | 0.00 | 0.02 | 0.00 | 99 | 1017.1 |
| 20260902071502 | 74 | 270 | 0.0 | 0.0 | 0.00 | 0.02 | 0.00 | 99 | 1017.2 |
| 20260902071105 | 74 | 270 | 0.0 | 0.0 | 0.00 | 0.02 | 0.00 | 99 | 1017.2 |
| 20260902070501 | 75 | 270 | 0.0 | 0.0 | 0.00 | 0.02 | 0.00 | 99 | 1017.2 |
| 20260902070002 | 74 | 270 | 0.0 | 0.0 | 0.00 | 0.03 | 0.00 | 99 | 1017.2 |
| 20260902065501 | 74 | 270 | 0.0 | 0.0 | 0.00 | 0.03 | 0.00 | 99 | 1017.3 |
| 20260902065100 | 74 | 270 | 0.0 | 0.0 | 0.00 | 0.03 | 0.00 | 99 | 1017.4 |
| 20260902064600 | 75 | 270 | 0.0 | 0.0 | 0.00 | 0.03 | 0.00 | 99 | 1017.3 |
| 20260902064100 | 75 | 270 | 0.0 | 0.0 | 0.00 | 0.03 | 0.00 | 99 | 1017.4 |
| 20260902063559 | 75 | 270 | 0.0 | 1.0 | 0.00 | 0.03 | 0.00 | 99 | 1017.5 |
| 20260902063100 | 75 | 270 | 0.0 | 1.0 | 0.00 | 0.03 | 0.00 | 99 | 1017.5 |
| 20260902062559 | 75 | 270 | 0.0 | 0.0 | 0.00 | 0.03 | 0.00 | 99 | 1017.5 |
| 20260902061103 | 75 | 270 | 0.0 | 0.0 | 0.00 | 0.03 | 0.00 | 99 | 1017.5 |
| 20260902060558 | 75 | 270 | 0.0 | 0.0 | 0.00 | 0.03 | 0.00 | 99 | 1017.6 |
| 20260902055601 | 75 | 270 | 0.0 | 0.0 | 0.00 | 0.03 | 0.00 | 99 | 1017.6 |
| 20260902055057 | 75 | 270 | 0.0 | 0.0 | 0.00 | 0.03 | 0.00 | 99 | 1017.5 |
| 20260902054612 | 75 | 270 | 0.0 | 0.0 | 0.00 | 0.03 | 0.00 | 99 | 1017.6 |
| 20260902054057 | 75 | 270 | 0.0 | 0.0 | 0.00 | 0.03 | 0.00 | 99 | 1017.5 |
| 20260902053558 | 75 | 270 | 0.0 | 0.0 | 0.00 | 0.03 | 0.00 | 99 | 1017.5 |
| 20260902053105 | 75 | 270 | 0.0 | 0.0 | 0.00 | 0.03 | 0.00 | 99 | 1017.6 |
| 20260902052556 | 75 | 270 | 0.0 | 0.0 | 0.00 | 0.03 | 0.00 | 98 | 1017.5 |
| 20260902051559 | 75 | 270 | 0.0 | 0.0 | 0.00 | 0.03 | 0.00 | 98 | 1017.5 |
| 20260902051157 | 75 | 270 | 0.0 | 0.0 | 0.00 | 0.03 | 0.00 | 98 | 1017.5 |
| 20260902050556 | 75 | 270 | 0.0 | 0.0 | 0.00 | 0.03 | 0.00 | 98 | 1017.5 |
| 20260902050057 | 75 | 270 | 0.0 | 0.0 | 0.00 | 0.03 | 0.00 | 98 | 1017.4 |
| 20260902045555 | 75 | 270 | 0.0 | 0.0 | 0.00 | 0.03 | 0.00 | 98 | 1017.3 |
| 20260902045054 | 75 | 270 | 0.0 | 0.0 | 0.00 | 0.03 | 0.00 | 98 | 1017.4 |
| 20260902044554 | 75 | 270 | 0.0 | 0.0 | 0.00 | 0.03 | 0.00 | 98 | 1017.3 |
| 20260902044053 | 75 | 270 | 0.0 | 0.0 | 0.00 | 0.03 | 0.00 | 98 | 1017.3 |
| 20260902043552 | 75 | 270 | 0.0 | 0.0 | 0.00 | 0.03 | 0.00 | 98 | 1017.3 |
| 20260902043052 | 76 | 270 | 0.0 | 0.0 | 0.00 | 0.03 | 0.00 | 98 | 1017.3 |
| 20260902042551 | 76 | 270 | 0.0 | 0.0 | 0.00 | 0.03 | 0.00 | 98 | 1017.2 |
| 20260902041549 | 76 | 270 | 0.0 | 0.0 | 0.00 | 0.03 | 0.00 | 98 | 1017.1 |
| 20260902041052 | 76 | 270 | 0.0 | 0.0 | 0.00 | 0.03 | 0.00 | 98 | 1017.1 |
| 20260902040547 | 76 | 270 | 0.0 | 1.0 | 0.00 | 0.03 | 0.00 | 98 | 1017.0 |
| 20260902040050 | 76 | 270 | 0.0 | 1.0 | 0.00 | 0.03 | 0.00 | 98 | 1017.0 |
| 20260902035545 | 76 | 270 | 0.0 | 1.0 | 0.00 | 0.03 | 0.03 | 98 | 1016.9 |
| 20260902035046 | 76 | 270 | 0.0 | 0.0 | 0.00 | 0.03 | 0.03 | 98 | 1017.0 |
| 20260902034547 | 76 | 270 | 0.0 | 0.0 | 0.00 | 0.03 | 0.03 | 98 | 1016.9 |
| 20260902034046 | 76 | 270 | 0.0 | 0.0 | 0.00 | 0.03 | 0.03 | 98 | 1016.9 |
| 20260902033545 | 76 | 270 | 0.0 | 0.0 | 0.00 | 0.03 | 0.03 | 97 | 1016.9 |
| 20260902033045 | 76 | 270 | 0.0 | 0.0 | 0.00 | 0.03 | 0.03 | 97 | 1016.8 |
| 20260902032545 | 76 | 270 | 0.0 | 0.0 | 0.00 | 0.03 | 0.03 | 97 | 1016.8 |
| 20260902031547 | 76 | 270 | 0.0 | 0.0 | 0.00 | 0.03 | 0.03 | 97 | 1016.8 |
| 20260902031046 | 76 | 270 | 0.0 | 0.0 | 0.00 | 0.03 | 0.03 | 97 | 1016.8 |
| 20260902030544 | 77 | 270 | 0.0 | 0.0 | 0.00 | 0.03 | 0.03 | 97 | 1016.7 |
| 20260902030045 | 77 | 270 | 0.0 | 0.0 | 0.00 | 0.03 | 0.03 | 96 | 1016.6 |
| 20260902025545 | 77 | 270 | 0.0 | 0.0 | 0.00 | 0.03 | 0.03 | 96 | 1016.6 |
| 20260902025046 | 77 | 270 | 0.0 | 0.0 | 0.00 | 0.03 | 0.03 | 96 | 1016.6 |
| 20260902024546 | 77 | 270 | 0.0 | 0.0 | 0.00 | 0.03 | 0.03 | 96 | 1016.6 |
| 20260902024045 | 77 | 270 | 0.0 | 0.0 | 0.00 | 0.03 | 0.03 | 96 | 1016.6 |
| 20260902023544 | 77 | 270 | 0.0 | 0.0 | 0.00 | 0.03 | 0.03 | 95 | 1016.6 |
| 20260902023058 | 78 | 270 | 0.0 | 1.0 | 0.00 | 0.03 | 0.03 | 95 | 1016.7 |
| 20260902022545 | 78 | 270 | 0.0 | 1.0 | 0.00 | 0.03 | 0.03 | 95 | 1016.7 |
| 20260902021544 | 78 | 270 | 0.0 | 1.0 | 0.00 | 0.03 | 0.03 | 95 | 1016.7 |
| 20260902021044 | 78 | 270 | 0.0 | 1.0 | 0.00 | 0.03 | 0.03 | 94 | 1016.6 |
| 20260902020544 | 78 | 270 | 0.0 | 1.0 | 0.00 | 0.03 | 0.03 | 94 | 1016.6 |
| 20260902020045 | 78 | 270 | 0.0 | 1.0 | 0.00 | 0.03 | 0.03 | 94 | 1016.6 |
| 20260902015543 | 78 | 270 | 0.0 | 2.0 | 0.00 | 0.03 | 0.03 | 94 | 1016.5 |
| 20260902015043 | 79 | 270 | 0.0 | 2.0 | 0.00 | 0.03 | 0.03 | 94 | 1016.5 |
| 20260902014543 | 79 | 260 | 0.0 | 2.0 | 0.00 | 0.03 | 0.03 | 94 | 1016.6 |
| 20260902014045 | 79 | 258 | 1.0 | 2.0 | 0.00 | 0.03 | 0.03 | 94 | 1016.5 |
| 20260902013544 | 78 | 245 | 0.0 | 2.0 | 0.00 | 0.03 | 0.03 | 94 | 1016.5 |
| 20260902013052 | 78 | 301 | 0.0 | 1.0 | 0.00 | 0.03 | 0.03 | 94 | 1016.5 |
| 20260902012542 | 78 | 316 | 0.0 | 1.0 | 0.00 | 0.03 | 0.03 | 94 | 1016.4 |
| 20260902011544 | 78 | 312 | 0.0 | 1.0 | 0.00 | 0.03 | 0.03 | 94 | 1016.4 |
| 20260902011044 | 78 | 43 | 0.0 | 1.0 | 0.00 | 0.03 | 0.03 | 94 | 1016.4 |
| 20260902010542 | 79 | 43 | 0.0 | 1.0 | 0.00 | 0.03 | 0.03 | 94 | 1016.6 |
| 20260902010042 | 79 | 43 | 0.0 | 1.0 | 0.00 | 0.03 | 0.03 | 94 | 1016.6 |
| 20260902005542 | 79 | 43 | 0.0 | 1.0 | 0.00 | 0.03 | 0.03 | 94 | 1016.5 |
| 20260902005044 | 79 | 43 | 0.0 | 1.0 | 0.00 | 0.03 | 0.03 | 94 | 1016.6 |
| 20260902004542 | 79 | 43 | 0.0 | 2.0 | 0.00 | 0.03 | 0.03 | 94 | 1016.5 |
| 20260902004041 | 79 | 43 | 0.0 | 2.0 | 0.01 | 0.03 | 0.03 | 94 | 1016.5 |
| 20260902003541 | 79 | 256 | 0.0 | 0.0 | 0.01 | 0.03 | 0.03 | 94 | 1016.4 |
| 20260902003042 | 79 | 256 | 0.0 | 0.0 | 0.01 | 0.03 | 0.03 | 93 | 1016.4 |
| 20260902002539 | 79 | 261 | 0.0 | 0.0 | 0.00 | 0.00 | 0.03 | 92 | 1016.5 |
| 20260902001556 | 79 | 261 | 0.0 | 1.0 | 0.01 | 0.03 | 0.03 | 92 | 1016.6 |
| 20260902001043 | 79 | 261 | 0.0 | 1.0 | 0.01 | 0.03 | 0.03 | 91 | 1016.7 |
| 20260902000540 | 80 | 261 | 0.0 | 1.0 | 0.01 | 0.03 | 0.03 | 91 | 1016.7 |
| 20260902000043 | 80 | 261 | 0.0 | 1.0 | 0.01 | 0.03 | 0.03 | 91 | 1016.7 |
| 20260901235542 | 80 | 249 | 0.0 | 1.0 | 0.01 | 0.03 | 0.03 | 90 | 1016.7 |
| 20260901235040 | 80 | 249 | 0.0 | 1.0 | 0.01 | 0.03 | 0.03 | 90 | 1016.7 |
| 20260901234540 | 80 | 252 | 0.0 | 1.0 | 0.01 | 0.03 | 0.03 | 89 | 1016.6 |
| 20260901234043 | 81 | 252 | 0.0 | 1.0 | 0.00 | 0.02 | 0.02 | 88 | 1016.6 |
| 20260901233540 | 81 | 252 | 0.0 | 1.0 | 0.00 | 0.02 | 0.02 | 88 | 1016.6 |
| 20260901233039 | 81 | 88 | 0.0 | 1.0 | 0.00 | 0.02 | 0.02 | 87 | 1016.5 |
| 20260901232539 | 82 | 276 | 0.0 | 2.0 | 0.00 | 0.02 | 0.02 | 85 | 1016.6 |
| 20260901231538 | 82 | 287 | 0.0 | 2.0 | 0.00 | 0.02 | 0.02 | 84 | 1016.6 |
| 20260901231139 | 83 | 98 | 0.0 | 2.0 | 0.00 | 0.02 | 0.02 | 83 | 1016.7 |
| 20260901230537 | 84 | 54 | 0.0 | 1.0 | 0.00 | 0.02 | 0.02 | 82 | 1016.6 |
| 20260901230039 | 84 | 82 | 0.0 | 2.0 | 0.00 | 0.02 | 0.02 | 81 | 1016.6 |
| 20260901225538 | 85 | 82 | 0.0 | 3.0 | 0.00 | 0.02 | 0.02 | 80 | 1016.7 |
| 20260901225037 | 85 | 231 | 0.0 | 3.0 | 0.00 | 0.02 | 0.02 | 79 | 1016.7 |
| 20260901224537 | 86 | 247 | 0.0 | 6.0 | 0.00 | 0.02 | 0.02 | 79 | 1016.7 |
| 20260901224036 | 85 | 148 | 0.0 | 6.0 | 0.00 | 0.02 | 0.02 | 78 | 1016.7 |
| 20260901223537 | 86 | 237 | 1.0 | 4.0 | 0.00 | 0.02 | 0.02 | 76 | 1016.7 |
| 20260901223041 | 86 | 259 | 0.0 | 4.0 | 0.00 | 0.02 | 0.02 | 77 | 1016.6 |
| 20260901222539 | 86 | 256 | 1.0 | 5.0 | 0.00 | 0.02 | 0.02 | 75 | 1016.6 |
| 20260901221549 | 87 | 255 | 1.0 | 5.0 | 0.00 | 0.02 | 0.02 | 75 | 1016.7 |
| 20260901221036 | 87 | 25 | 1.0 | 5.0 | 0.00 | 0.02 | 0.02 | 74 | 1016.7 |
| 20260901220535 | 88 | 167 | 0.0 | 5.0 | 0.00 | 0.02 | 0.02 | 74 | 1016.7 |
| 20260901220039 | 88 | 246 | 0.0 | 6.0 | 0.00 | 0.02 | 0.02 | 73 | 1016.7 |
| 20260901215535 | 88 | 249 | 0.0 | 6.0 | 0.00 | 0.02 | 0.02 | 73 | 1016.7 |
| 20260901215036 | 88 | 252 | 1.0 | 6.0 | 0.00 | 0.02 | 0.02 | 74 | 1016.7 |
| 20260901214535 | 88 | 136 | 1.0 | 4.0 | 0.00 | 0.02 | 0.02 | 72 | 1016.7 |
| 20260901214034 | 88 | 221 | 0.0 | 5.0 | 0.00 | 0.02 | 0.02 | 73 | 1016.8 |
| 20260901213535 | 88 | 291 | 0.0 | 7.0 | 0.00 | 0.02 | 0.02 | 72 | 1016.8 |
| 20260901213035 | 88 | 354 | 1.0 | 7.0 | 0.00 | 0.02 | 0.02 | 70 | 1016.7 |
| 20260901212535 | 88 | 228 | 1.0 | 5.0 | 0.00 | 0.02 | 0.02 | 70 | 1016.6 |
| 20260901211533 | 88 | 245 | 0.0 | 5.0 | 0.00 | 0.02 | 0.02 | 68 | 1016.6 |
| 20260901211035 | 88 | 259 | 1.0 | 5.0 | 0.00 | 0.02 | 0.02 | 68 | 1016.7 |
| 20260901210532 | 89 | 134 | 1.0 | 5.0 | 0.00 | 0.02 | 0.02 | 69 | 1016.7 |
| 20260901210033 | 89 | 115 | 0.0 | 5.0 | 0.00 | 0.02 | 0.02 | 69 | 1016.8 |
| 20260901205533 | 89 | 288 | 1.0 | 5.0 | 0.00 | 0.04 | 0.02 | 68 | 1016.8 |
| 20260901205037 | 89 | 37 | 1.0 | 5.0 | 0.00 | 0.04 | 0.02 | 68 | 1016.8 |